Location: Bratislava
(48.1500°N, 17.1170°E)
Time: 03:07:39
(UTC+02:00)

Tiangong 2 - Visible Passes

Search period start: 25 May 2017 00:00
Search period end: 04 June 2017 00:00
Orbit: 380 x 389 km, 42.8° (Epoch: 24 May)

Date Brightness Start Highest point End Pass type
(mag) Time Alt. Az. Time Alt. Az. Time Alt. Az.
25 May 2.1 22:13:11 10° SW 22:15:57 27° S 22:16:32 25° SSE visible
26 May 2.4 21:13:54 10° SW 21:16:27 22° SSE 21:19:01 10° ESE visible
26 May 2.2 22:49:54 10° WSW 22:52:07 28° SSW 22:52:07 28° SSW visible
27 May 2.0 21:50:23 10° WSW 21:53:13 30° S 21:55:15 15° ESE visible
27 May 3.5 23:26:54 10° WSW 23:27:28 13° WSW 23:27:28 13° WSW visible
28 May 2.1 22:27:14 10° WSW 22:30:01 28° S 22:30:28 27° S visible
29 May 2.1 21:27:37 10° WSW 21:30:29 30° S 21:33:19 10° ESE visible
29 May 3.2 23:04:25 10° WSW 23:05:37 16° SW 23:05:37 16° SW visible
30 May 2.5 22:04:35 10° WSW 22:07:13 24° SSW 22:08:29 18° SSE visible
31 May 3.3 22:42:10 10° SW 22:43:32 13° SSW 22:43:32 13° SSW visible
01 Jun 2.9 21:42:01 10° WSW 21:44:20 19° SSW 21:46:22 11° SSE visible
